Погода в Молочанске

Украина / Запорожская область     47°12′16″N   35°35′44″E
В апреле 2022 года жителям России запретили посещать сайт meteo.paraplan.net по решению Генеральной прокуратуры. Аудитория сайта уменьшилась в 10 раз. Владельцы сайта не видят смысла в поддержке погодного сервера в таких условиях. Сайт будет закрыт в октябре.
темп.,
°C
ветер,
м/с
пор.,
м/с
влажн.,
%
обл.,
%
осадки,
мм/ч
давл.,
гПа
погр.,
м
30 сентября, пт
пт3000:00+17ююв4773100 0.0 1014165
03:00+16юв4884100 0.0 1014167
06:00+16юв41092100 0.0 1015240
09:00+20ююв697437 0.0 1015494
12:00+26ю464335 0.0 10161615
15:00+27ююз6737100 0.1 10152193
18:00+24ю595190 0.2 1016328
21:00+19ююв497819 0.2 1018192
1 октября, сб
сб100:00+18ю3483100 0.0 101867
03:00+17юз228460 0.0 101912
06:00+16ююз228619 0.0 101920
09:00+21юз347084 0.0 1019296
12:00+26юз454488 0.0 1019917
15:00+28юз5637100 0.0 10171960
18:00+24ююз344829 0.0 101765
21:00+20ю4969100 0.0 1017203
2 октября, вс
вс200:00+19ю3671100 0.0 1015138
03:00+19ююв3578100 0.0 1013113
06:00+18ю3779100 0.0 1012168
09:00+21ююз5860100 0.0 1011430
12:00+24ююз4549100 0.0 10091074
15:00+19зюз3379100 0.9 1007288
18:00+17юв3789100 3.1 1004281
21:00+16зсз5994100 11.9 1002563
3 октября, пн
пн300:00+16зсз5988100 3.6 1003600
03:00+14зсз698797 3.9 1004634
06:00+13сз81183100 0.1 1006855
09:00+13зсз697829 0.2 1008852
12:00+17зсз785414 0.1 10091578
15:00+16зсз7858100 0.9 10111300
18:00+14зсз476530 0.1 1012316
21:00+12з367846 0.2 1014147
4 октября, вт
вт400:00+10з36815 0.0 1015129
03:00+10зюз36875 0.0 1016119
06:00+9зюз34895 0.0 101779
09:00+12зюз35680 0.0 1018415
12:00+16зюз464919 0.0 10181507
15:00+18зюз564011 0.0 10182047
18:00+15з344923 0.0 101983
21:00+13с016030 0.0 102010